map of ASU home
Great Circle Mapper logo
ASU - Airport
Location
City:  Asuncion, Paraguay
Name:Silvio Pettirossi International Airport
ICAO / IATA:SGAS / ASU

Details
Type:Airport (Aerodrome, Airfield)
Use:Public/Civil, Military, International (customs port of entry)
Latitude:2514'23"S (-25.239849)
Longitude:5731'09"W (-57.519132)
Datum:WGS 1984
Elevation:292 ft (89 m)
Runways:1
Longest:11001 × 151 ft (3353 × 46 m), paved

Time
Time Zone:UTC-4 (DST-3)
Local Time:

Weather
METAR:SGAS 201000Z 15003KT 9999 FEW020 21/20 Q1014
TAF:SGAS 201005Z 2006/2106 21010KT 9999 TS BKN030 FEW040CB TX29/2019Z TN20/2010Z
TEMPO 2007/2011 8000 TSRA BKN027 FEW040CB
BECMG 2012/2016 14008KT 9999 BKN027 PROB30
TEMPO 2017/2021 18015KT 6000 TSRA BKN020 FEW040CB

Related Locations
Nearby:
Farthest:TSA: 12386 mi / 19934 km
Taipei [Taipei Songshan (Sung Shan)], TW

Find:

   beyond  
but within

Other Information
Maps:
NOTAMs:
Links:
Sources:

  
flag of Paraguay   

Airport Diagram

Airport diagram for ASU

Airport diagram (OBSOLETE) from NGA

Sectional Chart

Flight Planning
at skyvector.com

Satellite Image

Google Maps Satellite View

 

Copyright © 2004-2014 Karl L. Swartz. All rights reserved.
The Great Circle Mapper name and logo are trademarks of the Great Circle Mapper.
All other trademarks mentioned herein belong to their respective owners.
Please see credits for attibutions and further copyright information.

  Follow gcmap on Facebook Follow gcmap on Twitter

hCard Microformat

Geo Microformat